EN

Hourly Weather Parowy

Today, 1 March, Monday

Time Temperature Precipitation Wind Pressure Humidity
00:00 +1°C° 0 mm 2 mps 767 mmHg 93%
01:00 +1°C° 0 mm 2 mps 768 mmHg 94%
02:00 +1°C° 0 mm 2 mps 768 mmHg 94%
03:00 +2°C° 0 mm 1 mps 768 mmHg 94%
04:00 +2°C° 0 mm 1 mps 768 mmHg 93%
05:00 +2°C° 0 mm 1 mps 768 mmHg 93%
06:00 +1°C° 0 mm 2 mps 768 mmHg 94%
07:00 +1°C° 0 mm 2 mps 768 mmHg 94%
08:00 +2°C° 0 mm 2 mps 768 mmHg 90%
09:00 +4°C° 0 mm 2 mps 768 mmHg 86%
10:00 +5°C° 0 mm 2 mps 768 mmHg 82%
11:00 +5°C° 0 mm 3 mps 768 mmHg 78%
12:00 +8°C° 0 mm 3 mps 768 mmHg 74%
13:00 +9°C° 0 mm 3 mps 768 mmHg 70%
14:00 +9°C° 0 mm 3 mps 768 mmHg 71%
15:00 +9°C° 0 mm 3 mps 768 mmHg 71%
16:00 +9°C° 0 mm 3 mps 767 mmHg 71%
17:00 +8°C° 0 mm 3 mps 767 mmHg 75%
18:00 +5°C° 0 mm 3 mps 767 mmHg 80%
19:00 +4°C° 0 mm 3 mps 767 mmHg 85%
20:00 +4°C° 0 mm 4 mps 767 mmHg 86%
21:00 +3°C° 0 mm 4 mps 767 mmHg 86%
22:00 +3°C° 0 mm 4 mps 767 mmHg 87%
23:00 +1°C° 0 mm 4 mps 767 mmHg 87%

Tomorrow, 2 March, Tuesday

Time Temperature Precipitation Wind Pressure Humidity
00:00 +1°C° 0 mm 4 mps 767 mmHg 87%
01:00 +1°C° 0 mm 4 mps 767 mmHg 87%
02:00 0°C° 0 mm 4 mps 766 mmHg 87%
03:00 0°C° 0 mm 4 mps 766 mmHg 87%
04:00 0°C° 0 mm 4 mps 765 mmHg 87%
05:00 0°C° 0 mm 4 mps 765 mmHg 88%
06:00 0°C° 0 mm 4 mps 766 mmHg 88%
07:00 0°C° 0 mm 4 mps 766 mmHg 89%
08:00 +1°C° 0 mm 4 mps 766 mmHg 84%
09:00 +4°C° 0 mm 4 mps 766 mmHg 79%
10:00 +5°C° 0 mm 5 mps 766 mmHg 75%
11:00 +6°C° 0 mm 5 mps 766 mmHg 72%
12:00 +7°C° 0 mm 5 mps 766 mmHg 69%
13:00 +8°C° 0 mm 4 mps 767 mmHg 66%
14:00 +8°C° 0 mm 4 mps 766 mmHg 68%
15:00 +8°C° 0 mm 4 mps 766 mmHg 71%
16:00 +8°C° 0 mm 3 mps 766 mmHg 73%
17:00 +7°C° 0 mm 3 mps 766 mmHg 79%
18:00 +4°C° 0 mm 3 mps 767 mmHg 85%
19:00 +4°C° 0 mm 2 mps 767 mmHg 91%
20:00 +3°C° 0 mm 2 mps 767 mmHg 92%
21:00 +3°C° 0 mm 2 mps 767 mmHg 92%
22:00 +3°C° 0 mm 1 mps 768 mmHg 93%
23:00 +3°C° 0 mm 1 mps 768 mmHg 92%

Day after tomorrow, 3 March, Wednesday

Time Temperature Precipitation Wind Pressure Humidity
00:00 +2°C° 0 mm 1 mps 768 mmHg 91%
01:00 +1°C° 0 mm 0 mps 768 mmHg 90%
02:00 +1°C° 0 mm 0 mps 767 mmHg 88%
03:00 +2°C° 0 mm 1 mps 767 mmHg 86%
04:00 +2°C° 0 mm 1 mps 767 mmHg 85%
05:00 +2°C° 0 mm 1 mps 767 mmHg 84%
06:00 +2°C° 0 mm 1 mps 766 mmHg 83%
07:00 +1°C° 0 mm 2 mps 766 mmHg 82%
08:00 +2°C° 0 mm 2 mps 766 mmHg 78%
09:00 +4°C° 0 mm 2 mps 766 mmHg 73%
10:00 +4°C° 0 mm 3 mps 766 mmHg 69%
11:00 +5°C° 0 mm 3 mps 765 mmHg 69%
12:00 +7°C° 0 mm 3 mps 764 mmHg 68%
13:00 +8°C° 0 mm 3 mps 764 mmHg 68%
14:00 +8°C° 0 mm 3 mps 763 mmHg 68%
15:00 +8°C° 0 mm 3 mps 762 mmHg 68%
16:00 +8°C° 0 mm 3 mps 761 mmHg 67%
17:00 +7°C° 0 mm 3 mps 761 mmHg 72%
18:00 +5°C° 0 mm 3 mps 760 mmHg 76%
19:00 +3°C° 0 mm 3 mps 760 mmHg 81%
20:00 +3°C° 0 mm 3 mps 759 mmHg 83%
21:00 +3°C° 0 mm 3 mps 758 mmHg 85%
22:00 +2°C° 0 mm 3 mps 758 mmHg 87%
23:00 +2°C° 0 mm 3 mps 757 mmHg 88%

4 March, Thursday

Time Temperature Precipitation Wind Pressure Humidity
00:00 +2°C° 0 mm 3 mps 756 mmHg 89%
01:00 +2°C° 0 mm 3 mps 756 mmHg 91%
02:00 +1°C° 0 mm 3 mps 755 mmHg 91%
03:00 +1°C° 0 mm 3 mps 754 mmHg 92%
04:00 +1°C° 0 mm 3 mps 754 mmHg 93%
05:00 +1°C° 0 mm 3 mps 753 mmHg 94%
06:00 +1°C° 0 mm 3 mps 753 mmHg 95%
07:00 +1°C° 0 mm 3 mps 753 mmHg 95%
08:00 +2°C° 0 mm 3 mps 753 mmHg 92%
09:00 +3°C° 0 mm 3 mps 753 mmHg 89%
10:00 +4°C° 0 mm 3 mps 753 mmHg 85%
11:00 +4°C° 0 mm 3 mps 753 mmHg 82%
12:00 +4°C° 0 mm 3 mps 753 mmHg 79%
13:00 +4°C° 0 mm 3 mps 753 mmHg 76%
14:00 +4°C° 0 mm 3 mps 752 mmHg 78%
15:00 +3°C° 0 mm 3 mps 752 mmHg 80%
16:00 +3°C° 0 mm 3 mps 752 mmHg 83%
17:00 +2°C° 0.1 mm 3 mps 752 mmHg 84%
18:00 0°C° 0.1 mm 4 mps 752 mmHg 86%
19:00 -1°C° 0.1 mm 4 mps 752 mmHg 87%
20:00 -2°C° 0 mm 4 mps 752 mmHg 85%
21:00 -2°C° 0 mm 4 mps 752 mmHg 82%
22:00 -1°C° 0 mm 3 mps 752 mmHg 80%
23:00 -1°C° 0 mm 3 mps 752 mmHg 80%

5 March, Friday

Time Temperature Precipitation Wind Pressure Humidity
00:00 -1°C° 0 mm 3 mps 752 mmHg 80%
01:00 -2°C° 0 mm 4 mps 752 mmHg 80%
02:00 -3°C° 0 mm 4 mps 752 mmHg 77%
03:00 -3°C° 0 mm 4 mps 753 mmHg 74%
04:00 -3°C° 0 mm 4 mps 753 mmHg 71%
05:00 -4°C° 0 mm 3 mps 753 mmHg 69%
06:00 -4°C° 0 mm 3 mps 753 mmHg 68%
07:00 -4°C° 0 mm 3 mps 754 mmHg 66%
08:00 -2°C° 0 mm 3 mps 754 mmHg 62%
09:00 -1°C° 0 mm 3 mps 755 mmHg 58%
10:00 +1°C° 0 mm 3 mps 755 mmHg 54%
11:00 0°C° 0.1 mm 4 mps 755 mmHg 56%
12:00 0°C° 0.1 mm 5 mps 756 mmHg 58%
13:00 0°C° 0.1 mm 5 mps 756 mmHg 60%
14:00 0°C° 0.1 mm 5 mps 756 mmHg 58%
15:00 -1°C° 0.1 mm 5 mps 757 mmHg 56%
16:00 -2°C° 0.1 mm 5 mps 757 mmHg 54%
17:00 -2°C° 0 mm 4 mps 757 mmHg 59%
18:00 -2°C° 0 mm 3 mps 758 mmHg 65%
19:00 -3°C° 0 mm 2 mps 758 mmHg 70%
20:00 -4°C° 0 mm 3 mps 759 mmHg 70%
21:00 -4°C° 0 mm 3 mps 760 mmHg 70%
22:00 -4°C° 0 mm 3 mps 760 mmHg 70%
23:00 -4°C° 0 mm 3 mps 760 mmHg 69%

6 March, Saturday

Time Temperature Precipitation Wind Pressure Humidity
00:00 -4°C° 0 mm 3 mps 761 mmHg 68%
01:00 -4°C° 0 mm 3 mps 761 mmHg 67%
02:00 -4°C° 0 mm 3 mps 761 mmHg 66%
03:00 -4°C° 0 mm 3 mps 762 mmHg 65%
04:00 -4°C° 0 mm 3 mps 762 mmHg 63%
05:00 -4°C° 0 mm 3 mps 763 mmHg 63%
06:00 -4°C° 0 mm 3 mps 763 mmHg 63%
07:00 -4°C° 0 mm 3 mps 764 mmHg 63%
08:00 -3°C° 0 mm 4 mps 764 mmHg 58%
09:00 -2°C° 0 mm 4 mps 764 mmHg 53%
10:00 -1°C° 0 mm 4 mps 765 mmHg 48%
11:00 -1°C° 0 mm 4 mps 765 mmHg 47%
12:00 0°C° 0 mm 4 mps 765 mmHg 45%
13:00 +1°C° 0 mm 3 mps 766 mmHg 44%
14:00 +1°C° 0 mm 3 mps 766 mmHg 45%
15:00 +1°C° 0 mm 3 mps 766 mmHg 45%
16:00 +1°C° 0 mm 3 mps 766 mmHg 46%
17:00 -1°C° 0 mm 3 mps 766 mmHg 49%
18:00 -2°C° 0 mm 2 mps 766 mmHg 53%
19:00 -3°C° 0 mm 2 mps 766 mmHg 57%
20:00 -3°C° 0 mm 2 mps 766 mmHg 58%
21:00 -4°C° 0 mm 3 mps 766 mmHg 59%
22:00 -4°C° 0 mm 3 mps 766 mmHg 61%
23:00 -4°C° 0 mm 3 mps 765 mmHg 61%
Show more

We Need Your Consent

Meteoprog and our Service Providers may store and access personal data such as cookies, device identifiers or other similar technologies on your device and process such data to personalise content and ads, as well as provide social media features and to analyse the traffic.

  • Store and/or access information on your device

    Cookies, device identifiers or other information can be stored or accessed on your device for the purposes indicated above.

  • Personalised ads and content, ad and content measurement, audience insights, and products development

    Ads and content can be personalised based on a profile. More data can be added to better personalise ads and content. Ad and content performance can be measured. Insights about the audience who saw the ads and content can be derived. Such data can be used to develop or improve user’s experience, systems and software.

By clicking ‘I Agree’ you will allow the use of indicated cookies, device identifiers, web beacons or other similar technologies. Your settings can be changed in the browser on your device.

For certain purposes, legitimate interests may be relied on, rather than consent. You can read more about this in our Privacy and Cookie Policy.